Sigfox identifier Datetime Temperature Humidity SNR
002F15E2 2019-06-03 16:33:50 17.6 47 13.5
002F15E2 2019-06-03 14:18:50 15.7 46 13.8
002F15E2 2019-06-03 12:03:44 13.6 45 14.1
002F15E2 2019-06-03 10:56:09 12.7 41 14.5
002F15E2 2019-06-03 09:48:32 12.3 39 15.1
002F15E2 2019-06-03 08:40:58 12.7 38 15.1
002F15E2 2019-06-03 07:33:22 13.3 39 14.9
002F15E2 2019-06-03 00:48:01 17.6 43 15.2
002F15E2 2019-06-02 20:17:57 16.3 43 15.2
002F15E2 2019-06-02 03:24:02 16.1 36 17
002F15E2 2019-06-02 00:01:28 18 37 17.8
002F15E2 2019-06-01 21:46:20 18.9 38 18.7
002F15E2 2019-06-01 19:31:21 19 39 19.6
002F15E2 2019-06-01 18:23:51 18.9 39 21.1
002F15E2 2019-06-01 17:16:21 18.7 38 22.3
002F15E2 2019-06-01 16:08:49 18.4 38 23
002F15E2 2019-06-01 12:46:21 18.2 37 23.8
002F15E2 2019-06-01 11:38:50 18.3 37 24.3
002F15E2 2019-06-01 10:31:24 18.5 37 24.5
002F15E2 2019-06-01 09:23:52 18.7 37 25
002F15E2 2019-06-01 08:16:21 18.8 37 25.1
002F15E2 2019-06-01 07:08:45 18.9 38 25.6
002F15E2 2019-06-01 06:01:15 19 38 25.8
002F15E2 2019-06-01 04:53:44 19.1 38 25.9
002F15E2 2019-06-01 03:46:14 19.1 38 26.3
002F15E2 2019-06-01 02:38:40 19.3 38 26.6
002F15E2 2019-06-01 01:31:09 19.3 38 26.8
002F15E2 2019-06-01 00:23:39 19.5 39 27.1
002F15E2 2019-05-31 23:16:10 19.8 39 27.3
002F15E2 2019-05-31 22:08:44 20.2 39 27.5
002F15E2 2019-05-31 21:01:14 20.4 40 27.7
002F15E2 2019-05-31 19:53:43 20.6 40 27.8
002F15E2 2019-05-31 18:46:14 20.8 40 28
002F15E2 2019-05-31 17:38:43 21 41 28.2
002F15E2 2019-05-31 15:23:45 21 42 28.3
002F15E2 2019-05-31 14:16:18 21 41 28.4
002F15E2 2019-05-31 13:08:47 20.9 42 28.6
002F15E2 2019-05-31 12:01:17 20.7 42 28.7
002F15E2 2019-05-31 10:53:47 20.6 42 28.7
002F15E2 2019-05-31 09:46:14 20.6 42 28.6
002F15E2 2019-05-31 08:38:46 20.6 42 28.6
002F15E2 2019-05-31 07:31:12 20.6 42 28.5
002F15E2 2019-05-31 06:23:41 20.5 42 28.5
002F15E2 2019-05-31 05:16:10 20.5 43 28.6
002F15E2 2019-05-31 04:08:35 20.4 43 28.6
002F15E2 2019-05-31 03:01:05 20.4 43 28.8
002F15E2 2019-05-31 01:53:36 20.4 43 28.6
002F15E2 2019-05-31 00:46:06 20.4 43 28.7
002F15E2 2019-05-30 23:38:33 20.4 43 28.9
002F15E2 2019-05-30 22:31:04 20.4 44 28.7
002F15E2 2019-05-30 21:23:32 20.4 44 28.7
002F15E2 2019-05-30 20:16:05 20.4 44 28.7
002F15E2 2019-05-30 19:08:35 20.4 44 28.5
002F15E2 2019-05-30 18:01:07 20.4 44 28.5
002F15E2 2019-05-30 16:53:38 20.6 44 28.5
002F15E2 2019-05-30 15:46:08 20.6 45 28.6
002F15E2 2019-05-30 14:38:36 20.6 45 28.6
002F15E2 2019-05-30 13:31:09 20.6 45 28.5
002F15E2 2019-05-30 12:23:43 20.6 45 28.5
002F15E2 2019-05-30 11:16:14 20.7 46 28.6
002F15E2 2019-05-30 10:08:44 20.8 46 28.5
002F15E2 2019-05-30 09:01:15 20.8 46 28.4
002F15E2 2019-05-30 07:53:46 20.8 46 28.4
002F15E2 2019-05-30 06:46:18 20.9 46 28.4
002F15E2 2019-05-30 05:38:49 21 47 28.4
002F15E2 2019-05-30 04:31:19 21 47 28.5
002F15E2 2019-05-30 03:23:50 21.1 47 28.4
002F15E2 2019-05-30 02:16:23 21.2 47 28.5
002F15E2 2019-05-30 01:08:53 21.3 47 28.5
002F15E2 2019-05-30 00:01:25 21.4 48 28.3
002F15E2 2019-05-29 22:53:58 21.4 48 28.4
002F15E2 2019-05-29 21:46:28 21.5 48 28.3
002F15E2 2019-05-29 20:39:00 21.7 48 28.3
002F15E2 2019-05-29 19:31:31 21.8 48 28.2
002F15E2 2019-05-29 18:24:01 21.9 49 28.2
002F15E2 2019-05-29 17:16:33 22.1 49 28.1
002F15E2 2019-05-29 16:09:08 22.2 49 28.2
002F15E2 2019-05-29 15:01:44 22.1 46 28.1
002F15E2 2019-05-29 13:54:15 22 47 28.1
002F15E2 2019-05-29 12:46:50 21.8 48 27.9
002F15E2 2019-05-29 11:39:25 21.7 49 27.8
002F15E2 2019-05-29 10:31:58 21.3 52 27.7
002F15E2 2019-05-29 09:24:32 21 51 27.7
002F15E2 2019-05-29 08:17:05 21 50 27.7
002F15E2 2019-05-29 07:09:37 21.2 48 27.6
002F15E2 2019-05-29 06:02:12 21.2 48 27.5
002F15E2 2019-05-29 04:54:48 21.2 48 27.6
002F15E2 2019-05-29 03:47:22 21.3 48 27.6
002F15E2 2019-05-29 02:39:54 21.3 48 27.5
002F15E2 2019-05-29 01:32:27 21.2 48 27.4
002F15E2 2019-05-29 00:25:02 21.2 48 27.3
002F15E2 2019-05-28 23:17:36 21.3 48 27.3
002F15E2 2019-05-28 22:10:10 21.3 47 27.2
002F15E2 2019-05-28 21:02:45 21.3 47 26.9
002F15E2 2019-05-28 19:55:21 21.4 47 26.9
002F15E2 2019-05-28 18:47:57 21.4 47 26.8
002F15E2 2019-05-28 17:40:32 21.7 46 26.8
002F15E2 2019-05-28 16:33:06 22.1 46 26.8
002F15E2 2019-05-28 15:25:41 22.1 46 26.9
002F15E2 2019-05-28 14:18:15 22 46 27
002F15E2 2019-05-28 13:10:46 21.7 47 27.1
002F15E2 2019-05-28 12:03:20 21.3 47 27
002F15E2 2019-05-28 10:55:50 21.2 46 27.1
002F15E2 2019-05-28 09:48:19 21 47 27.2
002F15E2 2019-05-28 08:40:49 21 47 27.2
002F15E2 2019-05-28 07:33:21 21 45 27.3
002F15E2 2019-05-28 06:25:50 21 44 27.4
002F15E2 2019-05-28 05:18:23 21.1 43 27.3
002F15E2 2019-05-28 04:10:56 21.2 43 27.3
002F15E2 2019-05-28 03:03:29 21.2 43 27.2
002F15E2 2019-05-28 01:56:02 21.2 42 27.3
002F15E2 2019-05-28 00:48:34 21.3 42 27
002F15E2 2019-05-27 23:41:07 21.3 42 26.6
002F15E2 2019-05-27 22:33:39 21.5 42 26.7
002F15E2 2019-05-27 21:26:11 21.7 41 26.8
002F15E2 2019-05-27 20:18:43 21.7 41 26.6
002F15E2 2019-05-27 19:11:16 21.5 40 26.5
002F15E2 2019-05-27 18:03:50 21.6 39 26.7
002F15E2 2019-05-27 16:56:25 21.7 43 27
002F15E2 2019-05-27 15:48:56 21.5 44 27.4
002F15E2 2019-05-27 14:41:27 21.3 44 27.4
002F15E2 2019-05-27 13:33:58 21.1 46 27.7
002F15E2 2019-05-27 12:26:26 21 46 28.9
002F15E2 2019-05-27 11:18:52 21.6 48 0